• In Deutschland
  • Länderverzeichnis
  • Für 7 Tage
  • Wassertemperatur
  • Satellitenkarten
  • Wetterkarte
  • Widgets
  • user-avatar
    Anmelden

    Stündliche Wetter Aschdod

    Heute, 20 Oktober, Samstag

    Zeit Temperatur Niederschläge Wind Luftdruck Luftfeuchtigkeit
    00:00 +26°C° 0 mm 1 m/S 758 mmHg 80%
    01:00 +26°C° 0 mm 1 m/S 758 mmHg 81%
    02:00 +25°C° 0 mm 1 m/S 758 mmHg 81%
    03:00 +25°C° 0.1 mm 1 m/S 758 mmHg 82%
    04:00 +25°C° 0.1 mm 1 m/S 758 mmHg 83%
    05:00 +25°C° 0.1 mm 1 m/S 758 mmHg 84%
    06:00 +25°C° 0.1 mm 1 m/S 758 mmHg 80%
    07:00 +26°C° 0.1 mm 1 m/S 759 mmHg 77%
    08:00 +26°C° 0 mm 1 m/S 759 mmHg 74%
    09:00 +27°C° 0 mm 1 m/S 759 mmHg 69%
    10:00 +28°C° 0 mm 2 m/S 759 mmHg 65%
    11:00 +29°C° 0 mm 2 m/S 759 mmHg 60%
    12:00 +29°C° 0.1 mm 3 m/S 758 mmHg 59%
    13:00 +29°C° 0.1 mm 3 m/S 758 mmHg 58%
    14:00 +29°C° 0 mm 3 m/S 758 mmHg 56%
    15:00 +29°C° 0.2 mm 3 m/S 758 mmHg 58%
    16:00 +28°C° 0.2 mm 3 m/S 758 mmHg 61%
    17:00 +28°C° 0.2 mm 3 m/S 758 mmHg 63%
    18:00 +27°C° 0 mm 3 m/S 758 mmHg 64%
    19:00 +27°C° 0 mm 2 m/S 758 mmHg 66%
    20:00 +26°C° 0 mm 1 m/S 758 mmHg 67%
    21:00 +26°C° 0 mm 1 m/S 758 mmHg 68%
    22:00 +26°C° 0 mm 1 m/S 758 mmHg 70%
    23:00 +25°C° 0 mm 1 m/S 758 mmHg 71%

    Morgen, 21 Oktober, Sonntag

    Zeit Temperatur Niederschläge Wind Luftdruck Luftfeuchtigkeit
    00:00 +25°C° 0 mm 1 m/S 758 mmHg 72%
    01:00 +25°C° 0 mm 1 m/S 758 mmHg 72%
    02:00 +24°C° 0 mm 2 m/S 758 mmHg 73%
    03:00 +24°C° 0 mm 2 m/S 758 mmHg 74%
    04:00 +24°C° 0 mm 2 m/S 757 mmHg 74%
    05:00 +24°C° 0 mm 2 m/S 757 mmHg 75%
    06:00 +24°C° 0 mm 2 m/S 758 mmHg 71%
    07:00 +25°C° 0 mm 2 m/S 758 mmHg 68%
    08:00 +26°C° 0 mm 2 m/S 758 mmHg 65%
    09:00 +27°C° 0 mm 2 m/S 758 mmHg 62%
    10:00 +28°C° 0 mm 2 m/S 758 mmHg 59%
    11:00 +28°C° 0 mm 2 m/S 759 mmHg 56%
    12:00 +29°C° 0 mm 2 m/S 758 mmHg 54%
    13:00 +29°C° 0 mm 3 m/S 758 mmHg 53%
    14:00 +30°C° 0 mm 3 m/S 758 mmHg 51%
    15:00 +29°C° 0 mm 2 m/S 758 mmHg 54%
    16:00 +29°C° 0 mm 2 m/S 758 mmHg 57%
    17:00 +28°C° 0 mm 2 m/S 758 mmHg 60%
    18:00 +28°C° 0 mm 2 m/S 758 mmHg 61%
    19:00 +28°C° 0 mm 2 m/S 758 mmHg 62%
    20:00 +27°C° 0 mm 2 m/S 759 mmHg 63%
    21:00 +27°C° 0 mm 2 m/S 759 mmHg 61%
    22:00 +27°C° 0 mm 2 m/S 759 mmHg 59%
    23:00 +27°C° 0 mm 2 m/S 759 mmHg 57%

    übermorgen, 22 Oktober, Montag

    Zeit Temperatur Niederschläge Wind Luftdruck Luftfeuchtigkeit
    00:00 +26°C° 0 mm 2 m/S 759 mmHg 54%
    01:00 +26°C° 0 mm 2 m/S 759 mmHg 51%
    02:00 +26°C° 0 mm 3 m/S 758 mmHg 48%
    03:00 +26°C° 0 mm 3 m/S 758 mmHg 46%
    04:00 +26°C° 0 mm 3 m/S 759 mmHg 45%
    05:00 +26°C° 0 mm 3 m/S 759 mmHg 43%
    06:00 +27°C° 0 mm 4 m/S 759 mmHg 40%
    07:00 +28°C° 0 mm 4 m/S 759 mmHg 36%
    08:00 +29°C° 0 mm 4 m/S 759 mmHg 32%
    09:00 +32°C° 0 mm 4 m/S 759 mmHg 28%
    10:00 +33°C° 0 mm 3 m/S 759 mmHg 25%
    11:00 +35°C° 0 mm 3 m/S 759 mmHg 21%
    12:00 +35°C° 0 mm 3 m/S 758 mmHg 21%
    13:00 +36°C° 0 mm 3 m/S 758 mmHg 21%
    14:00 +36°C° 0 mm 3 m/S 757 mmHg 21%
    15:00 +35°C° 0 mm 3 m/S 757 mmHg 22%
    16:00 +35°C° 0 mm 3 m/S 757 mmHg 23%
    17:00 +34°C° 0 mm 3 m/S 757 mmHg 24%
    18:00 +33°C° 0 mm 3 m/S 757 mmHg 24%
    19:00 +33°C° 0 mm 4 m/S 757 mmHg 24%
    20:00 +32°C° 0 mm 5 m/S 757 mmHg 24%
    21:00 +32°C° 0 mm 5 m/S 757 mmHg 24%
    22:00 +32°C° 0 mm 5 m/S 757 mmHg 24%
    23:00 +32°C° 0 mm 5 m/S 757 mmHg 24%

    23 Oktober, Dienstag

    Zeit Temperatur Niederschläge Wind Luftdruck Luftfeuchtigkeit
    00:00 +32°C° 0 mm 5 m/S 757 mmHg 25%
    01:00 +30°C° 0 mm 4 m/S 757 mmHg 26%
    02:00 +30°C° 0 mm 4 m/S 757 mmHg 27%
    03:00 +30°C° 0 mm 4 m/S 757 mmHg 28%
    04:00 +29°C° 0 mm 4 m/S 757 mmHg 29%
    05:00 +29°C° 0 mm 4 m/S 757 mmHg 29%
    06:00 +30°C° 0 mm 4 m/S 757 mmHg 28%
    07:00 +32°C° 0 mm 4 m/S 757 mmHg 27%
    08:00 +33°C° 0 mm 4 m/S 758 mmHg 26%
    09:00 +34°C° 0 mm 4 m/S 757 mmHg 24%
    10:00 +35°C° 0 mm 4 m/S 757 mmHg 22%
    11:00 +37°C° 0 mm 3 m/S 757 mmHg 20%
    12:00 +37°C° 0 mm 4 m/S 757 mmHg 20%
    13:00 +37°C° 0 mm 4 m/S 756 mmHg 20%
    14:00 +37°C° 0 mm 4 m/S 756 mmHg 21%
    15:00 +36°C° 0 mm 4 m/S 756 mmHg 25%
    16:00 +35°C° 0 mm 3 m/S 756 mmHg 30%
    17:00 +33°C° 0 mm 3 m/S 756 mmHg 35%
    18:00 +33°C° 0 mm 3 m/S 756 mmHg 34%
    19:00 +32°C° 0 mm 2 m/S 756 mmHg 33%
    20:00 +32°C° 0 mm 2 m/S 756 mmHg 33%
    21:00 +31°C° 0 mm 2 m/S 756 mmHg 31%
    22:00 +31°C° 0 mm 2 m/S 756 mmHg 30%
    23:00 +31°C° 0 mm 2 m/S 756 mmHg 28%

    24 Oktober, Mittwoch

    Zeit Temperatur Niederschläge Wind Luftdruck Luftfeuchtigkeit
    00:00 +30°C° 0.1 mm 2 m/S 756 mmHg 29%
    01:00 +30°C° 0.1 mm 2 m/S 755 mmHg 30%
    02:00 +30°C° 0.1 mm 2 m/S 755 mmHg 31%
    03:00 +30°C° 0 mm 2 m/S 755 mmHg 32%
    04:00 +30°C° 0 mm 2 m/S 755 mmHg 33%
    05:00 +29°C° 0 mm 3 m/S 755 mmHg 34%
    06:00 +30°C° 0 mm 3 m/S 755 mmHg 34%
    07:00 +30°C° 0 mm 4 m/S 756 mmHg 33%
    08:00 +30°C° 0 mm 5 m/S 756 mmHg 33%
    09:00 +32°C° 0 mm 5 m/S 755 mmHg 31%
    10:00 +34°C° 0 mm 6 m/S 755 mmHg 29%
    11:00 +35°C° 0 mm 7 m/S 755 mmHg 27%
    12:00 +34°C° 0 mm 7 m/S 754 mmHg 30%
    13:00 +34°C° 0 mm 7 m/S 754 mmHg 34%
    14:00 +33°C° 0 mm 7 m/S 754 mmHg 38%
    15:00 +32°C° 0 mm 6 m/S 754 mmHg 44%
    16:00 +30°C° 0 mm 4 m/S 754 mmHg 50%
    17:00 +29°C° 0 mm 3 m/S 754 mmHg 57%
    18:00 +29°C° 0 mm 3 m/S 754 mmHg 57%
    19:00 +29°C° 0 mm 2 m/S 755 mmHg 58%
    20:00 +28°C° 0 mm 1 m/S 755 mmHg 59%
    21:00 +28°C° 0 mm 1 m/S 755 mmHg 60%
    22:00 +28°C° 0 mm 1 m/S 755 mmHg 60%
    23:00 +27°C° 0 mm 1 m/S 755 mmHg 60%

    25 Oktober, Donnerstag

    Zeit Temperatur Niederschläge Wind Luftdruck Luftfeuchtigkeit
    00:00 +27°C° 0 mm 1 m/S 754 mmHg 59%
    01:00 +27°C° 0 mm 2 m/S 754 mmHg 57%
    02:00 +27°C° 0 mm 2 m/S 754 mmHg 55%
    03:00 +27°C° 0.1 mm 3 m/S 754 mmHg 52%
    04:00 +27°C° 0.1 mm 4 m/S 754 mmHg 48%
    05:00 +27°C° 0.1 mm 5 m/S 754 mmHg 45%
    06:00 +27°C° 0 mm 5 m/S 754 mmHg 42%
    07:00 +28°C° 0 mm 6 m/S 754 mmHg 39%
    08:00 +29°C° 0 mm 7 m/S 754 mmHg 36%
    09:00 +31°C° 0 mm 8 m/S 753 mmHg 34%
    10:00 +32°C° 0 mm 9 m/S 753 mmHg 33%
    11:00 +33°C° 0 mm 10 m/S 753 mmHg 31%
    12:00 +32°C° 0 mm 10 m/S 753 mmHg 32%
    13:00 +32°C° 0 mm 10 m/S 753 mmHg 33%
    14:00 +32°C° 0 mm 10 m/S 753 mmHg 33%
    15:00 +31°C° 0 mm 9 m/S 753 mmHg 36%
    16:00 +31°C° 0 mm 9 m/S 753 mmHg 38%
    17:00 +29°C° 0 mm 8 m/S 753 mmHg 40%
    18:00 +28°C° 0 mm 7 m/S 753 mmHg 47%
    19:00 +27°C° 0 mm 7 m/S 754 mmHg 55%
    20:00 +26°C° 0 mm 7 m/S 754 mmHg 62%
    21:00 +26°C° 0.2 mm 7 m/S 754 mmHg 64%
    22:00 +26°C° 0.2 mm 7 m/S 755 mmHg 66%
    23:00 +24°C° 0.2 mm 8 m/S 755 mmHg 69%
    Mehr zeigen